Weather reports worldwide

Advertisment
Weybourne, United Kingdom (3488): temperature & dewpoint: 17.03.2017 14:00:00 - 23.03.2017 14:00:00 (GMT)Weybourne, United Kingdom (3488): wind speed & gusts: 17.03.2017 14:00:00 - 23.03.2017 14:00:00 (GMT)Weybourne, United Kingdom (3488): wind direction: 17.03.2017 14:00:00 - 23.03.2017 14:00:00 (GMT)Weybourne, United Kingdom (3488): reduced air pressure: 17.03.2017 14:00:00 - 23.03.2017 14:00:00 (GMT)Weybourne, United Kingdom (3488): visibility: 17.03.2017 14:00:00 - 23.03.2017 14:00:00 (GMT)Weybourne, United Kingdom (3488): precipitation: 17.03.2017 14:00:00 - 23.03.2017 14:00:00 (GMT)
Date & Time tt [°C] td [°C] ff [km/h] ff [kn] fx [km/h] fx [kn] dd ppp [hPa] vv [km] rr [mm]
23.03.2017 14:00:00 - - - - - - - - - 0,0
23.03.2017 13:00:00 8,8 6,3 35 19 - - ENE 1019,6 10 0,0
23.03.2017 12:00:00 8,8 6,2 31 17 - - E 1019,5 8 0,0
23.03.2017 11:00:00 8,6 6,4 28 15 - - E 1018,9 9 0,0
23.03.2017 10:00:00 8,3 6,2 31 17 - - E 1018,7 8 0,0
23.03.2017 09:00:00 8,5 6,7 26 14 - - E 1017,9 7 0,0
23.03.2017 08:00:00 8,1 5,9 22 12 - - E 1017,1 7 0,0
23.03.2017 07:00:00 7,4 6,4 24 13 - - E 1016,2 5 0,0
23.03.2017 06:00:00 6,8 6,0 18 10 - - E 1015,6 3,1 0,0
23.03.2017 05:00:00 6,9 6,2 15 8 - - E 1015,0 3,6 0,0
23.03.2017 04:00:00 6,7 6,0 13 7 - - E 1014,4 3,4 0,0
23.03.2017 03:00:00 6,6 5,7 13 7 - - E 1014,1 9 0,0
23.03.2017 02:00:00 6,9 6,0 11 6 - - E 1013,7 8 0,0
23.03.2017 01:00:00 6,7 5,5 15 8 - - E 1013,5 12 0,0
23.03.2017 00:00:00 6,6 5,4 15 8 - - ESE 1013,2 22 0,2
22.03.2017 23:00:00 6,3 5,6 8 4 - - ESE 1013,0 9 0,6
22.03.2017 22:00:00 6,6 5,8 11 6 - - ESE 1012,7 6 0,6
22.03.2017 21:00:00 6,9 5,9 18 10 - - SE 1012,3 8 0,2
22.03.2017 20:00:00 7,2 5,7 18 10 - - SE 1011,4 16 0,0
22.03.2017 19:00:00 7,4 5,1 18 10 - - SE 1010,7 40 0,0
22.03.2017 18:00:00 7,3 4,7 21 11 - - SE 1009,7 50 0,0
22.03.2017 17:00:00 7,4 5,4 18 10 - - SE 1008,8 9 0,2
22.03.2017 16:00:00 8,4 4,3 26 14 46 25 SSE 1008,2 30 0,0
22.03.2017 15:00:00 8,6 4,3 26 14 48 26 SSE 1007,9 40 0,2
22.03.2017 14:00:00 9,5 3,6 34 18 50 27 SSE 1007,6 35 0,0
22.03.2017 13:00:00 10,2 3,1 34 18 55 30 SSE 1007,4 40 0,0
22.03.2017 12:00:00 10,8 3,6 29 16 54 29 SSE 1007,4 45 0,0
22.03.2017 11:00:00 9,8 2,1 34 18 50 27 SSE 1007,3 29 0,0
22.03.2017 10:00:00 9,1 3,1 26 14 - - SE 1007,4 35 0,0
22.03.2017 09:00:00 8,4 3,3 21 11 - - SE 1007,3 40 0,0
22.03.2017 08:00:00 7,1 3,4 21 11 - - SE 1007,2 6 0,0
22.03.2017 07:00:00 5,8 3,2 18 10 - - SE 1007,1 27 0,0
22.03.2017 06:00:00 5,0 2,6 21 11 - - SE 1007,2 26 0,0
22.03.2017 05:00:00 4,6 2,7 22 12 - - SSE 1007,2 30 0,0
22.03.2017 04:00:00 4,6 2,5 21 11 - - SSE 1007,5 28 0,0
22.03.2017 03:00:00 4,4 2,0 22 12 - - S 1008,1 40 0,0
22.03.2017 02:00:00 4,3 1,8 22 12 - - SSE 1008,4 28 0,0
22.03.2017 01:00:00 4,2 1,2 21 11 - - S 1008,5 45 0,0
22.03.2017 00:00:00 4,6 0,8 22 12 - - S 1008,6 50 0,0
21.03.2017 23:00:00 4,8 1,0 22 12 - - S 1008,4 50 0,0
21.03.2017 22:00:00 5,0 0,6 15 8 - - SSW 1008,4 40 0,0
21.03.2017 21:00:00 5,5 0,7 21 11 - - SSW 1008,4 50 0,0
21.03.2017 20:00:00 4,7 -0,5 11 6 - - SSW 1008,5 50 0,0
21.03.2017 19:00:00 6,6 -0,7 22 12 - - SW 1008,3 50 0,0
21.03.2017 18:00:00 8,3 0,1 24 13 - - SW 1007,6 50 0,0
21.03.2017 17:00:00 9,5 -0,8 29 16 46 25 WSW 1007,1 22 0,0
21.03.2017 16:00:00 9,3 -1,2 37 20 55 30 WSW 1007,1 50 0,0
21.03.2017 15:00:00 10,4 0,1 35 19 57 31 WSW 1006,9 45 0,0
21.03.2017 14:00:00 9,6 0,0 39 21 57 31 WSW 1007,0 50 0,0
21.03.2017 13:00:00 9,3 0,6 39 21 59 32 WSW 1007,3 50 0,0
21.03.2017 12:00:00 8,8 0,4 42 23 61 33 WSW 1007,0 40 0,0
21.03.2017 11:00:00 8,1 0,0 39 21 63 34 WSW 1006,7 25 0,0
21.03.2017 10:00:00 7,2 1,0 41 22 57 31 WSW 1006,4 35 0,0
21.03.2017 09:00:00 5,8 0,9 41 22 55 30 WSW 1006,3 50 0,0
21.03.2017 08:00:00 4,8 0,6 37 20 54 29 WSW 1005,5 45 0,0
21.03.2017 07:00:00 3,9 0,6 34 18 50 27 WSW 1004,8 50 0,0
21.03.2017 06:00:00 3,7 0,8 31 17 52 28 WSW 1004,0 40 0,0
21.03.2017 05:00:00 4,3 2,0 31 17 46 25 WSW 1003,4 45 0,0
21.03.2017 04:00:00 4,8 2,3 35 19 52 28 WSW 1003,0 50 0,0
21.03.2017 03:00:00 5,3 3,6 31 17 - - SW 1002,4 50 0,0
21.03.2017 02:00:00 5,6 3,9 28 15 - - SW 1002,2 40 0,0
21.03.2017 01:00:00 6,2 4,6 26 14 - - SW 1002,1 30 0,0
21.03.2017 00:00:00 6,5 5,1 26 14 - - SW 1002,4 3,4 0,0
20.03.2017 23:00:00 6,5 4,0 22 12 - - SW 1002,4 50 0,0
20.03.2017 22:00:00 7,0 4,8 24 13 - - SW 1002,1 50 0,0
20.03.2017 21:00:00 7,2 5,8 22 12 - - SW 1001,8 50 0,0
20.03.2017 20:00:00 7,4 6,1 15 8 - - SW 1001,4 50 0,0
20.03.2017 19:00:00 7,7 6,4 22 12 - - SW 1001,0 50 0,0
20.03.2017 18:00:00 8,5 6,7 24 13 - - WSW 1000,5 50 0,0
20.03.2017 17:00:00 8,8 6,8 26 14 - - WSW 1000,0 45 0,0
20.03.2017 16:00:00 8,5 7,9 24 13 - - WSW 999,5 35 1,8
20.03.2017 15:00:00 8,0 7,5 29 16 54 29 W 999,4 9 3,0
20.03.2017 14:00:00 9,1 8,9 26 14 87 47 W 998,3 9 2,0
20.03.2017 13:00:00 12,4 11,1 39 21 61 33 SW 997,3 15 0,2
20.03.2017 12:00:00 13,6 11,0 37 20 57 31 SW 998,1 45 0,0
20.03.2017 11:00:00 13,1 10,1 41 22 61 33 SW 998,9 35 0,0
20.03.2017 10:00:00 12,2 10,4 31 17 48 26 SW 999,7 28 0,0
20.03.2017 09:00:00 11,6 10,3 31 17 - - SW 1000,4 50 0,0
20.03.2017 08:00:00 11,0 10,5 26 14 46 25 SSW 1000,9 3,0 0,2
20.03.2017 07:00:00 10,7 10,2 26 14 - - SW 1001,7 17 0,2
20.03.2017 06:00:00 10,6 10,0 28 15 - - SW 1002,2 13 0,4
20.03.2017 05:00:00 10,7 9,8 31 17 - - SW 1002,4 23 0,2
20.03.2017 04:00:00 10,9 9,3 29 16 - - SW 1002,6 25 0,0
20.03.2017 03:00:00 10,9 9,0 28 15 - - SW 1002,7 50 0,0
20.03.2017 02:00:00 11,2 8,9 28 15 - - SW 1003,4 50 0,0
20.03.2017 01:00:00 11,3 9,1 29 16 - - SW 1004,0 50 0,0
20.03.2017 00:00:00 11,3 9,3 34 18 46 25 SW 1004,4 45 0,0
19.03.2017 23:00:00 11,1 9,3 29 16 52 28 SW 1004,5 50 0,0
19.03.2017 22:00:00 11,1 9,3 29 16 48 26 SW 1004,2 50 0,0
19.03.2017 21:00:00 11,6 10,4 37 20 48 26 WSW 1004,3 4,9 0,0
19.03.2017 20:00:00 11,7 10,6 35 19 54 29 SW 1004,1 3,9 0,0
19.03.2017 19:00:00 12,6 9,7 37 20 54 29 SW 1003,7 35 0,0
19.03.2017 18:00:00 13,6 9,3 37 20 57 31 WSW 1003,2 15 0,0
19.03.2017 17:00:00 14,3 8,8 41 22 61 33 WSW 1002,9 45 0,0
19.03.2017 16:00:00 14,8 8,2 52 28 70 38 WSW 1002,9 30 0,0
19.03.2017 15:00:00 15,2 8,5 48 26 72 39 WSW 1002,4 50 0,0
19.03.2017 14:00:00 15,8 8,9 50 27 67 36 WSW 1002,4 50 0,0
19.03.2017 13:00:00 13,9 9,4 37 20 72 39 SW 1002,9 50 0,0
19.03.2017 12:00:00 15,1 9,8 52 28 70 38 WSW 1003,2 40 0,0
19.03.2017 11:00:00 14,4 9,6 44 24 70 38 WSW 1003,5 35 0,0
19.03.2017 10:00:00 12,5 8,9 42 23 61 33 WSW 1003,7 50 0,0
19.03.2017 09:00:00 12,0 8,6 44 24 65 35 WSW 1003,6 17 0,0
19.03.2017 08:00:00 11,4 8,6 44 24 63 34 WSW 1004,5 50 0,0
19.03.2017 07:00:00 11,0 8,8 41 22 63 34 WSW 1003,8 50 0,0
19.03.2017 06:00:00 11,1 9,2 44 24 59 32 WSW 1004,3 45 0,0
19.03.2017 05:00:00 11,1 9,4 37 20 57 31 SW 1004,1 35 0,0
19.03.2017 04:00:00 11,5 9,7 35 19 48 26 WSW 1004,5 35 0,0
19.03.2017 03:00:00 11,6 10,1 31 17 52 28 SW 1005,1 30 0,0
19.03.2017 02:00:00 11,9 10,6 39 21 55 30 SW 1005,6 25 0,0
19.03.2017 01:00:00 11,9 10,5 34 18 50 27 SW 1006,2 35 0,0
19.03.2017 00:00:00 11,8 10,7 29 16 - - SW 1007,0 20 0,0
18.03.2017 23:00:00 11,4 10,6 26 14 - - SW 1007,2 26 0,0
18.03.2017 22:00:00 11,3 10,7 24 13 - - SW 1007,7 45 0,0
18.03.2017 21:00:00 11,4 10,4 26 14 - - WSW 1008,3 50 0,0
18.03.2017 20:00:00 11,3 10,2 24 13 - - WSW 1008,2 50 0,0
18.03.2017 19:00:00 11,4 10,8 22 12 - - SW 1008,1 40 0,0
18.03.2017 18:00:00 11,3 10,6 15 8 - - SW 1007,7 45 0,0
18.03.2017 17:00:00 11,4 11,0 16 9 - - WSW 1007,7 12 0,4
18.03.2017 16:00:00 12,0 10,4 28 15 - - W 1007,6 10 0,0
18.03.2017 15:00:00 13,1 10,4 24 13 - - W 1007,3 50 0,0
18.03.2017 14:00:00 13,3 9,8 29 16 48 26 W 1007,1 50 0,0
18.03.2017 13:00:00 14,0 10,0 41 22 57 31 W 1007,4 50 0,0
18.03.2017 12:00:00 14,1 10,5 34 18 54 29 W 1006,7 45 0,0
18.03.2017 11:00:00 13,4 9,6 39 21 54 29 W 1006,2 50 0,0
18.03.2017 10:00:00 13,2 10,0 39 21 54 29 W 1005,8 50 0,0
18.03.2017 09:00:00 12,8 9,9 39 21 59 32 W 1005,4 30 0,0
18.03.2017 08:00:00 11,8 9,4 35 19 48 26 W 1005,2 50 0,0
18.03.2017 07:00:00 11,6 9,0 37 20 48 26 W 1004,5 40 0,0
18.03.2017 06:00:00 11,8 8,8 35 19 55 30 W 1004,1 50 0,0
18.03.2017 05:00:00 11,7 8,8 35 19 54 29 W 1003,4 30 0,0
18.03.2017 04:00:00 11,7 8,7 39 21 57 31 W 1002,4 50 0,0
18.03.2017 03:00:00 11,8 8,6 41 22 67 36 W 1001,9 40 0,0
18.03.2017 02:00:00 11,0 8,2 46 25 61 33 WSW 1000,9 50 0,0
18.03.2017 01:00:00 10,3 7,9 42 23 59 32 WSW 1001,4 50 0,0
18.03.2017 00:00:00 10,3 7,2 48 26 74 40 WSW 1001,4 50 0,0
17.03.2017 23:00:00 9,8 6,7 52 28 72 39 WSW 1002,3 50 0,0
17.03.2017 22:00:00 9,6 6,2 54 29 74 40 WSW 1003,2 50 0,0
17.03.2017 21:00:00 9,0 5,6 44 24 68 37 SW 1003,8 50 0,0
17.03.2017 20:00:00 8,9 5,0 46 25 72 39 SW 1005,2 30 0,0
17.03.2017 19:00:00 9,0 4,6 46 25 68 37 SW 1006,6 40 0,0
17.03.2017 18:00:00 9,2 4,0 42 23 63 34 SW 1008,1 40 0,0
17.03.2017 17:00:00 9,3 3,6 46 25 67 36 SW 1009,6 45 0,0
17.03.2017 16:00:00 9,6 3,6 42 23 63 34 WSW 1010,8 45 0,0
17.03.2017 15:00:00 9,7 4,2 39 21 65 35 WSW 1012,3 50 0,0
17.03.2017 14:00:00 9,8 3,9 46 25 63 34 WSW 1013,1 45 0,0

tt = temperature
td = dewpoint
ff = wind speed
fx = gusts
dd = wind direction
ppp = reduced air pressure
vv = visibility
rr = precipitation

Next stations